Year;Month;Day;Time;MJD;Mass_X;Mass_Y;Mass_Z;Motion_X;Motion_Y;Motion_Z
2001;01;01;00:00:00;51910.0;-2.207836524781159e-08;-7.952944851586487e-08;-7.653812429019047e-10;6.939239185745710e-09;-4.168512441634524e-08;1.223470211186101e-09
2001;01;01;03:00:00;51910.125;-2.162445936197116e-08;-7.960405592871776e-08;-7.832698319427521e-10;-5.864723770094670e-08;-3.597056120409681e-08;1.188977041621218e-09
2001;01;01;06:00:00;51910.250;-1.587779436355278e-08;-7.811154921387317e-08;-7.852923903076159e-10;-8.545274164275478e-08;-2.274092213002651e-08;1.111703112007159e-09
2001;01;01;09:00:00;51910.375;-1.024512564723809e-08;-7.766143285108153e-08;-7.941619057004420e-10;-4.367760135388645e-08;9.364643970752722e-08;1.034597335394061e-09
2001;01;01;12:00:00;51910.500;-3.999370378286002e-09;-7.808563465942100e-08;-8.007110613293890e-10;5.871662776947236e-08;1.700192138684411e-07;9.966519654423996e-10
2001;01;01;15:00:00;51910.625;-1.040169084375207e-09;-8.466739134715415e-08;-8.074134860718233e-10;1.202878451556857e-07;1.425470063201809e-07;1.062549798804340e-09
2001;01;01;18:00:00;51910.750;7.379756893269642e-09;-8.743359082128836e-08;-8.118142651826935e-10;1.435316586374764e-07;6.410752758330352e-08;1.108206687733928e-09
2001;01;01;21:00:00;51910.875;1.388026863119044e-08;-9.090153181330372e-08;-8.115729201699743e-10;1.821179953778261e-07;2.333738371559700e-08;1.086387011690069e-09
2001;01;02;00:00:00;51911.0;1.276634968365621e-08;-8.282552342108814e-08;-8.109464766862114e-10;2.128868964338172e-07;-1.477924175720856e-08;1.114102538382508e-09
2001;01;02;03:00:00;51911.125;1.658340765282184e-08;-8.669457591135876e-08;-8.010016830747985e-10;1.167950625815186e-07;-7.681289196490644e-08;1.109914184329041e-09
2001;01;02;06:00:00;51911.250;2.394741509729152e-08;-8.901497408616710e-08;-7.844521715745133e-10;3.206839724874207e-08;-8.599502827427628e-08;1.114358449529978e-09
2001;01;02;09:00:00;51911.375;2.988722472309513e-08;-9.040915302810842e-08;-7.866333446036613e-10;3.016685629380516e-08;1.882982820253865e-08;1.162904348783919e-09
2001;01;02;12:00:00;51911.500;2.960679889818753e-08;-8.773034930382083e-08;-7.678547958063853e-10;7.677703606215048e-08;1.233284542318094e-07;1.200063571136890e-09
2001;01;02;15:00:00;51911.625;2.495794589743532e-08;-8.816851826469516e-08;-7.723103411974880e-10;1.521884498111856e-07;9.495113538654836e-08;1.198995781650241e-09
2001;01;02;18:00:00;51911.750;2.417807301896468e-08;-9.296604798940415e-08;-7.892890588679884e-10;2.165793122903006e-07;1.636943896864149e-08;1.232179025739950e-09
2001;01;02;21:00:00;51911.875;2.169696608509822e-08;-1.055880387302095e-07;-7.950543218149299e-10;2.316284025932917e-07;-4.637920601470379e-09;1.296729291553890e-09
2001;01;03;00:00:00;51912.0;1.459526054434001e-08;-1.087137389208491e-07;-7.999640669389313e-10;2.340404659728490e-07;-5.602359892036447e-08;1.327833724463839e-09
2001;01;03;03:00:00;51912.125;9.172204508785219e-09;-1.201379414811074e-07;-7.567055815185208e-10;1.485600433164969e-07;-1.569183925490880e-07;1.256755960563550e-09
2001;01;03;06:00:00;51912.250;2.708814087724372e-09;-1.332193992205476e-07;-6.982173945766098e-10;7.243818903947733e-08;-2.158501511609504e-07;1.198267563402990e-09
2001;01;03;09:00:00;51912.375;-7.911458799926761e-10;-1.472700501081978e-07;-6.911532228069199e-10;1.080041060280197e-08;-7.774116498023634e-08;1.230898856780718e-09
2001;01;03;12:00:00;51912.500;-7.445708319967662e-09;-1.581816526494118e-07;-6.843053952301746e-10;8.861666640398616e-09;7.162880412387954e-08;1.240268371044360e-09
2001;01;03;15:00:00;51912.625;-1.645840743363617e-08;-1.660402763567016e-07;-6.761235675443352e-10;6.460654618855518e-08;6.639383832126374e-08;1.189675505908790e-09
2001;01;03;18:00:00;51912.750;-1.765720237753951e-08;-1.772640335550774e-07;-6.814615791177033e-10;1.449952353338539e-07;1.873985307440519e-08;1.190564074097209e-09
2001;01;03;21:00:00;51912.875;-1.571520461772236e-08;-1.978782431381231e-07;-6.635482860612764e-10;1.997856615290614e-07;4.196390225556609e-08;1.228984861317700e-09
2001;01;04;00:00:00;51913.0;-1.669768979125834e-08;-2.080596381793070e-07;-6.418908956608824e-10;2.198399571905576e-07;-1.306723033856858e-08;1.234455693229720e-09
2001;01;04;03:00:00;51913.125;-1.631758865728647e-08;-2.249877347305386e-07;-6.220036323640296e-10;1.865325666492379e-07;-9.801143095688358e-08;1.188928452368720e-09
2001;01;04;06:00:00;51913.250;-1.340920191083624e-08;-2.373410407758827e-07;-6.049690251935137e-10;1.368945494352274e-07;-1.550434989789442e-07;1.198754809394850e-09
2001;01;04;09:00:00;51913.375;-1.210792746808013e-08;-2.514293973220875e-07;-6.150701030452445e-10;3.325770922120913e-08;-1.315509829182977e-07;1.219553283803111e-09
2001;01;04;12:00:00;51913.500;-1.152935797396006e-08;-2.590267952042752e-07;-6.019299974721088e-10;-2.704422286599942e-08;-7.325239361592262e-08;1.186964681208018e-09
2001;01;04;15:00:00;51913.625;-1.410553806913586e-08;-2.645607417423021e-07;-6.276613352180960e-10;-3.709429943277442e-08;2.554352002762311e-09;1.169947027520249e-09
2001;01;04;18:00:00;51913.750;-1.290022502861784e-08;-2.668623105002007e-07;-6.507053521090608e-10;4.440394826689137e-08;5.149597137619886e-08;1.171129732707219e-09
2001;01;04;21:00:00;51913.875;-1.224552089034034e-08;-2.780416118749000e-07;-6.609665221792810e-10;1.039251922762632e-07;4.341709709679389e-08;1.170071076573809e-09
2001;01;05;00:00:00;51914.0;-1.371859336850935e-08;-2.840672479557653e-07;-6.404724943586176e-10;1.554662975775868e-07;1.144208871026748e-08;1.168288785899588e-09
2001;01;05;03:00:00;51914.125;-1.373349776709479e-08;-2.976509176294801e-07;-5.633116774857622e-10;1.361539908151133e-07;-3.802098896654782e-08;1.100587357729660e-09
2001;01;05;06:00:00;51914.250;-1.132312000810782e-08;-3.052292104711694e-07;-5.037569868725190e-10;1.152691233623357e-07;-8.882716204863558e-08;1.075507779717840e-09
2001;01;05;09:00:00;51914.375;-8.507130081374941e-09;-3.165896718387583e-07;-4.937063301145545e-10;6.016735477513299e-08;-9.067076352517347e-08;1.121964703964871e-09
2001;01;05;12:00:00;51914.500;-1.227938804162007e-08;-3.195020227480649e-07;-4.391993880305584e-10;2.168007553737617e-08;-3.542463279381840e-08;1.111360251187519e-09
2001;01;05;15:00:00;51914.625;-1.435300426559066e-08;-3.271861922560621e-07;-3.932578095295974e-10;-2.376323672957546e-08;4.024556095779971e-09;1.105872368088380e-09
2001;01;05;18:00:00;51914.750;-1.468257042289418e-08;-3.230115034305762e-07;-3.735595528544731e-10;-2.167782976703094e-08;2.807583304536433e-08;1.155222568730529e-09
2001;01;05;21:00:00;51914.875;-1.379919880676648e-08;-3.211317828221845e-07;-3.952995520614103e-10;9.940243906569265e-09;6.819971125981188e-08;1.196390600047568e-09
2001;01;06;00:00:00;51915.0;-1.500277525013447e-08;-3.150492839401430e-07;-3.971511579194715e-10;6.339605782268139e-08;9.043463703667987e-08;1.172624696423269e-09
2001;01;06;03:00:00;51915.125;-1.015962641619027e-08;-3.178511254112908e-07;-4.407817055723657e-10;7.286981763852592e-08;7.332717767362946e-08;1.113197533058008e-09
2001;01;06;06:00:00;51915.250;-2.946109427383562e-09;-3.148303670021173e-07;-4.900234067500174e-10;8.438422119256806e-08;2.986404561946858e-08;1.043747968180868e-09
2001;01;06;09:00:00;51915.375;1.626460071229084e-09;-3.110846951682076e-07;-5.337367020867747e-10;8.129794340032655e-08;2.106623855807692e-09;9.996764250184897e-10
2001;01;06;12:00:00;51915.500;-1.502174026342891e-09;-3.003018011907672e-07;-5.521396934365332e-10;9.124518839303554e-08;-1.379319422069663e-08;9.330914310849695e-10
2001;01;06;15:00:00;51915.625;-7.111336384801317e-09;-2.976293878937876e-07;-5.772082884917302e-10;9.927533157696616e-08;-4.881803716541128e-08;9.155787907117885e-10
2001;01;06;18:00:00;51915.750;-1.141374455214231e-08;-2.913222217702850e-07;-5.979032097648155e-10;1.374863301190658e-07;-5.808479582597733e-08;8.955533213592378e-10
2001;01;06;21:00:00;51915.875;-1.349644778507377e-08;-2.843501800176970e-07;-6.258935268442121e-10;8.807359686587540e-08;-7.660197576012922e-08;8.447873298745496e-10
2001;01;07;00:00:00;51916.0;-1.989642817687823e-08;-2.639285989845817e-07;-6.397403581100657e-10;5.197975968412909e-08;-1.097547203716909e-07;7.878420168608388e-10
2001;01;07;03:00:00;51916.125;-2.197931437346853e-08;-2.561178907372872e-07;-6.717796056071352e-10;3.272600144682752e-08;-5.458322976715719e-08;6.691767553179708e-10
2001;01;07;06:00:00;51916.250;-2.135156815938085e-08;-2.464514095064595e-07;-6.887691687041026e-10;9.768119569085224e-08;-4.639458779987298e-09;6.022369134377100e-10
2001;01;07;09:00:00;51916.375;-2.088406870333154e-08;-2.354494888092664e-07;-6.971034683518510e-10;1.208051612247600e-07;-8.964594709466658e-09;5.462874669351005e-10
2001;01;07;12:00:00;51916.500;-2.434815669150307e-08;-2.293088343006359e-07;-6.810653049678877e-10;1.649136053808310e-07;-1.908161337280018e-08;4.361983163792482e-10
2001;01;07;15:00:00;51916.625;-2.820147186011857e-08;-2.223359222946567e-07;-6.266812870307755e-10;1.817432580589505e-07;-6.617475864611696e-08;3.595588285524479e-10
2001;01;07;18:00:00;51916.750;-3.288911991463298e-08;-2.185347162407103e-07;-5.663204284972724e-10;2.121336656343712e-07;-1.083548135902548e-07;3.202324801568290e-10
2001;01;07;21:00:00;51916.875;-4.136872922040404e-08;-2.167780322524368e-07;-5.367010569501604e-10;1.847952505266770e-07;-1.488078653871108e-07;3.021477026530304e-10
2001;01;08;00:00:00;51917.0;-4.900268433477466e-08;-2.075310712211650e-07;-4.835116958613717e-10;1.384672386536597e-07;-1.827022451419426e-07;2.785300277542499e-10
2001;01;08;03:00:00;51917.125;-5.640159617449352e-08;-2.079224836142856e-07;-4.673341468990426e-10;4.764321533163046e-08;-1.908945213869317e-07;2.246045555471584e-10
2001;01;08;06:00:00;51917.250;-6.030438373163957e-08;-2.075849268987151e-07;-4.352542484816034e-10;5.707196819489461e-09;-1.539817604325463e-07;1.732740969736810e-10
2001;01;08;09:00:00;51917.375;-6.688167261569134e-08;-2.049721012735059e-07;-3.972225669618039e-10;-1.640902620561501e-08;-7.179987181024681e-08;1.434473794140392e-10
2001;01;08;12:00:00;51917.500;-7.359583030508245e-08;-1.965610971308791e-07;-3.550793941302950e-10;1.151417755543531e-08;-2.900278344667740e-09;1.193960156892503e-10
2001;01;08;15:00:00;51917.625;-8.170355985074539e-08;-1.887832232124125e-07;-2.988562317841730e-10;4.931040413319696e-08;7.903500989733834e-09;1.521613083940109e-10
2001;01;08;18:00:00;51917.750;-8.201071829033186e-08;-1.852940643086362e-07;-2.579690173548168e-10;1.116315045461459e-07;-7.596282032614760e-09;2.095618676014108e-10
2001;01;08;21:00:00;51917.875;-8.248347651560762e-08;-1.823286851022695e-07;-2.415512569101325e-10;1.241416596877475e-07;-2.018475641184763e-08;2.119539785774787e-10
2001;01;09;00:00:00;51918.0;-8.735835151543434e-08;-1.699937633592697e-07;-2.061798161180153e-10;1.177022739694983e-07;-7.451935099632518e-08;2.198207676668801e-10
2001;01;09;03:00:00;51918.125;-8.991717716840402e-08;-1.676813370162298e-07;-2.143978071952901e-10;6.899180359696345e-08;-9.442618719287387e-08;2.163352151785304e-10
2001;01;09;06:00:00;51918.250;-8.746893232673865e-08;-1.635232990802371e-07;-2.304643817300831e-10;2.261153435589379e-08;-7.592912903464080e-08;2.144399871274707e-10
2001;01;09;09:00:00;51918.375;-8.948652502328285e-08;-1.584692336414335e-07;-2.226873290621790e-10;3.640464090982594e-09;-2.755760057049311e-08;2.169232289980306e-10
2001;01;09;12:00:00;51918.500;-9.507751816193637e-08;-1.520120778566135e-07;-2.064119216789064e-10;6.069625244871898e-08;2.222344790603923e-08;2.101785788292194e-10
2001;01;09;15:00:00;51918.625;-9.876585849136453e-08;-1.471197710293429e-07;-2.171437007396471e-10;1.018442750034566e-07;3.839748790393177e-08;1.932674376673398e-10
2001;01;09;18:00:00;51918.750;-9.787684909867480e-08;-1.465535065433262e-07;-2.299744237302100e-10;1.359797797328040e-07;4.853312684067436e-08;1.758677756594580e-10
2001;01;09;21:00:00;51918.875;-9.715847044840139e-08;-1.554313630697577e-07;-2.488101040399555e-10;1.836071827979833e-07;2.979322132217889e-08;1.515814938699308e-10
2001;01;10;00:00:00;51919.0;-9.848603347249892e-08;-1.539799259756281e-07;-2.577633199634432e-10;2.500477777297794e-07;-2.964372999795097e-08;1.171678192045903e-10
2001;01;10;03:00:00;51919.125;-9.256313840952479e-08;-1.546694782758306e-07;-2.739398849377156e-10;1.884792006058103e-07;-8.700642146724979e-08;-6.279116979661985e-11
2001;01;10;06:00:00;51919.250;-8.538530258069433e-08;-1.584507895231216e-07;-2.945771281616651e-10;1.132377309929995e-07;-8.233564268607914e-08;-2.808764025225713e-10
2001;01;10;09:00:00;51919.375;-8.328193777075775e-08;-1.620190166118349e-07;-3.252782975694930e-10;8.493320379644335e-08;-5.538643073223919e-08;-3.547707962067998e-10
2001;01;10;12:00:00;51919.500;-8.137538980267454e-08;-1.580184229675065e-07;-3.472955944929578e-10;9.170978251044031e-08;-2.530730678478505e-08;-4.063566543081212e-10
2001;01;10;15:00:00;51919.625;-7.461025649860959e-08;-1.615200468892708e-07;-3.547983838082847e-10;1.209834852386047e-07;-5.768456335409045e-08;-5.332801063653307e-10
2001;01;10;18:00:00;51919.750;-6.507029482643200e-08;-1.585310523561053e-07;-3.627866010320316e-10;1.624371228198005e-07;-8.498368251538567e-08;-6.673393316955817e-10
2001;01;10;21:00:00;51919.875;-5.709893371760236e-08;-1.586337514662934e-07;-3.794604450213299e-10;1.217623263572271e-07;-1.034361597470456e-07;-7.276475266293594e-10
2001;01;11;00:00:00;51920.0;-5.035661560833082e-08;-1.530353276194802e-07;-4.020757073468015e-10;1.031920729324995e-07;-1.617296839895247e-07;-7.603973484751802e-10
2001;01;11;03:00:00;51920.125;-3.766186047696907e-08;-1.572006122401293e-07;-4.302464713163949e-10;9.390683395641431e-08;-1.595253160250152e-07;-8.673825898096708e-10
2001;01;11;06:00:00;51920.250;-2.785084259279700e-08;-1.620754233291972e-07;-4.611385409506499e-10;1.186615251651939e-07;-1.380599135163062e-07;-9.784873844474299e-10
2001;01;11;09:00:00;51920.375;-2.367623607770970e-08;-1.667412537629074e-07;-4.964682823145237e-10;7.595609252923734e-08;-1.446279923995580e-07;-1.003089438274270e-09
2001;01;11;12:00:00;51920.500;-2.106976932948649e-08;-1.686268596772567e-07;-5.168156662270209e-10;8.400755493637040e-08;-1.543464257909396e-07;-1.003502913850632e-09
2001;01;11;15:00:00;51920.625;-1.652588182830946e-08;-1.724447428650365e-07;-5.489700626587855e-10;8.735581262253699e-08;-1.466625898818995e-07;-1.019123372241430e-09
2001;01;11;18:00:00;51920.750;-1.207721880843188e-08;-1.719225958092068e-07;-5.685565032212902e-10;1.108234568658454e-07;-1.020874109175154e-07;-1.086279823470201e-09
2001;01;11;21:00:00;51920.875;-4.634328553681199e-09;-1.737449391483744e-07;-5.801849864315068e-10;1.017487145897372e-07;-1.103315253209681e-07;-1.085933276584069e-09
2001;01;12;00:00:00;51921.0;-3.714467156209813e-09;-1.616592162881098e-07;-5.895096781707092e-10;1.160008880930465e-07;-1.612530292809315e-07;-1.042491132775900e-09
2001;01;12;03:00:00;51921.125;-7.901694000709115e-10;-1.616428619928225e-07;-6.096228803417732e-10;6.662368807538176e-08;-1.430299759277360e-07;-1.022050128076021e-09
2001;01;12;06:00:00;51921.250;-4.568213356575042e-10;-1.621179606881695e-07;-6.109521326258460e-10;5.410357361098355e-08;-8.674895277783217e-08;-1.050375275851691e-09
2001;01;12;09:00:00;51921.375;-3.813720207376008e-09;-1.621174102736113e-07;-6.329815737346439e-10;5.237416243398541e-08;-6.780697405749419e-08;-1.047847755582411e-09
2001;01;12;12:00:00;51921.500;-8.987457078379709e-09;-1.609112208851657e-07;-6.525239759075641e-10;1.022575948770642e-07;-4.395671085786874e-08;-1.023733130574811e-09
2001;01;12;15:00:00;51921.625;-1.653491410435665e-08;-1.629292762635481e-07;-6.525446187813161e-10;1.219911284301407e-07;-6.233866252535054e-08;-1.099241397049132e-09
2001;01;12;18:00:00;51921.750;-2.218981751103627e-08;-1.685079676894494e-07;-6.452365547260625e-10;1.412439779368414e-07;-7.999006360692580e-08;-1.187739700887881e-09
2001;01;12;21:00:00;51921.875;-2.540144223450384e-08;-1.779874158660574e-07;-6.478690993024412e-10;1.224103964340926e-07;-9.627724109320908e-08;-1.179457801130181e-09
2001;01;13;00:00:00;51922.0;-3.197669899813871e-08;-1.734625290854144e-07;-6.354640854377109e-10;9.464649628014164e-08;-1.225590527303005e-07;-1.176502438985312e-09
2001;01;13;03:00:00;51922.125;-3.273109075079834e-08;-1.805237954845228e-07;-6.296615958440287e-10;3.923632246511127e-08;-9.946715918356109e-08;-1.244442093504470e-09
2001;01;13;06:00:00;51922.250;-3.601924213884946e-08;-1.872069550083938e-07;-6.017113940228710e-10;2.664707438492176e-08;-3.873647658448682e-08;-1.279912469219980e-09
2001;01;13;09:00:00;51922.375;-3.894819996593999e-08;-1.951131299323193e-07;-5.896013134330885e-10;2.768112073729142e-08;-5.615114067028990e-09;-1.278355028702460e-09
2001;01;13;12:00:00;51922.500;-3.909331638590698e-08;-1.967753254756283e-07;-5.503192323601015e-10;7.509775610121398e-08;2.065234239538422e-08;-1.326745763250610e-09
2001;01;13;15:00:00;51922.625;-4.039435508434380e-08;-1.980494933191907e-07;-5.243148235080800e-10;9.938790264312993e-08;2.325212299160591e-08;-1.432804875821609e-09
2001;01;13;18:00:00;51922.750;-4.181209849008134e-08;-2.009529224454664e-07;-5.064582654991049e-10;1.493927905349574e-07;4.237156840822574e-08;-1.507779819169211e-09
2001;01;13;21:00:00;51922.875;-4.224959906374157e-08;-2.091062739711180e-07;-4.863333343560565e-10;1.498943738195494e-07;-5.858097062480128e-09;-1.503106786783809e-09
2001;01;14;00:00:00;51923.0;-4.138279236525195e-08;-2.051665061734904e-07;-4.548421930980941e-10;1.434582410447220e-07;-7.695393000876785e-08;-1.504628498944701e-09
2001;01;14;03:00:00;51923.125;-3.662852467484036e-08;-2.032395018504789e-07;-4.174338210550242e-10;9.770683601828285e-08;-6.641957465504260e-08;-1.596996658313629e-09
2001;01;14;06:00:00;51923.250;-3.336016313439245e-08;-1.988194822062067e-07;-3.878740221112279e-10;7.256267216500166e-08;-2.320181362653098e-08;-1.658548639789601e-09
2001;01;14;09:00:00;51923.375;-3.025870011317939e-08;-1.937569686973337e-07;-3.876456557114332e-10;3.741315065331790e-08;-5.424089887088233e-08;-1.633573103257309e-09
2001;01;14;12:00:00;51923.500;-2.960360608984918e-08;-1.831718714479090e-07;-3.635263905097023e-10;5.503671710871456e-08;-6.309320059838069e-08;-1.626593455607231e-09
2001;01;14;15:00:00;51923.625;-2.924323483649612e-08;-1.668055706885669e-07;-3.330345970015951e-10;-2.169843705845799e-08;-5.153899294788593e-08;-1.566669795835001e-09
2001;01;14;18:00:00;51923.750;-3.234098165057648e-08;-1.455859793705441e-07;-2.917502424066740e-10;-6.767317432673822e-08;3.351627870461713e-10;-1.472408435674771e-09
2001;01;14;21:00:00;51923.875;-3.477562848347149e-08;-1.284610548345504e-07;-2.852459605918941e-10;-5.396256219635146e-08;3.000826233456470e-08;-1.428510023704871e-09
2001;01;15;00:00:00;51924.0;-3.599959267785030e-08;-1.035207502865231e-07;-2.567791212250081e-10;-1.465959267819117e-08;6.717500795687249e-08;-1.406565588386600e-09
2001;01;15;03:00:00;51924.125;-3.513691114526732e-08;-9.594147252179306e-08;-2.096198118424178e-10;-4.196836436911999e-09;9.505724015800455e-08;-1.413186804938679e-09
2001;01;15;06:00:00;51924.250;-3.202993517083452e-08;-8.792386281855861e-08;-1.693042058854390e-10;4.195130711065101e-08;1.026834002123273e-07;-1.382090449716140e-09
2001;01;15;09:00:00;51924.375;-3.433813776148859e-08;-7.728478693850566e-08;-1.584583113776271e-10;5.645321314076486e-08;8.261985565933655e-08;-1.323431318171032e-09
2001;01;15;12:00:00;51924.500;-3.993330609426582e-08;-6.568400759513106e-08;-1.200214099275211e-10;7.702794309697820e-08;6.743601715728828e-08;-1.300685296633461e-09
2001;01;15;15:00:00;51924.625;-4.309836776978904e-08;-6.109099509403733e-08;-1.003270640573272e-10;7.182967705019635e-08;4.263778585613384e-08;-1.250114073518090e-09
2001;01;15;18:00:00;51924.750;-4.542706642710248e-08;-5.316762532096846e-08;-6.636220531791890e-11;6.420107563910387e-08;1.871785878017522e-08;-1.223464529714039e-09
2001;01;15;21:00:00;51924.875;-4.840901620413411e-08;-4.352034325642477e-08;-6.106397752476937e-11;1.572301374285787e-08;1.584395408707935e-08;-1.168067696926760e-09
2001;01;16;00:00:00;51925.0;-5.536111376983018e-08;-2.987879596746568e-08;-4.565731147493061e-11;-3.656314830279508e-09;3.371808697755803e-08;-1.077362400338469e-09
2001;01;16;03:00:00;51925.125;-5.974434830502412e-08;-2.387974592359932e-08;-1.699764579272697e-11;-4.224899638656610e-08;8.885458389922847e-08;-1.064458114803212e-09
2001;01;16;06:00:00;51925.250;-5.785545242545742e-08;-2.302765861566336e-08;1.325887713482127e-11;-5.636878211613989e-08;1.613444481362513e-07;-1.066007166028529e-09
2001;01;16;09:00:00;51925.375;-5.506872115240499e-08;-2.280538984660628e-08;-2.929935725869298e-12;-3.086844906918784e-08;2.013596551672886e-07;-1.043514220454191e-09
2001;01;16;12:00:00;51925.500;-5.694059896547009e-08;-1.805990122027605e-08;-4.493164967551218e-12;5.907657329906029e-08;2.153839837485485e-07;-1.032855634304812e-09
2001;01;16;15:00:00;51925.625;-5.618769588193124e-08;-1.841878162471727e-08;-3.489380805290642e-11;1.044913749239854e-07;1.985808748498354e-07;-9.938226791351303e-10
2001;01;16;18:00:00;51925.750;-5.598504598636541e-08;-2.107493587427363e-08;-5.509094408689592e-11;1.130284036925520e-07;1.738069842915371e-07;-9.744940485429897e-10
2001;01;16;21:00:00;51925.875;-5.296727297291585e-08;-2.644934817264749e-08;-7.063993111341456e-11;1.150207681532384e-07;9.368865280533327e-08;-9.787716427051397e-10
2001;01;17;00:00:00;51926.0;-5.733894688348878e-08;-2.333320128816207e-08;-7.583292036282041e-11;1.179921363715581e-07;1.962565816131700e-08;-9.788885376970103e-10
2001;01;17;03:00:00;51926.125;-5.893502954253667e-08;-2.744241882579714e-08;-9.507552795847816e-11;4.818634148336656e-08;-1.289898116914464e-08;-1.011930499711922e-09
2001;01;17;06:00:00;51926.250;-5.603632254414288e-08;-3.269682984687554e-08;-1.040644318552990e-10;-1.374799491913094e-08;2.333076850616827e-08;-1.073082378152131e-09
2001;01;17;09:00:00;51926.375;-5.490263069641655e-08;-3.839285374803766e-08;-1.260415368984899e-10;-3.657697261093307e-08;6.181831315880264e-08;-1.132767478392032e-09
2001;01;17;12:00:00;51926.500;-5.841428201512576e-08;-3.541264610478967e-08;-1.415253195232229e-10;1.614038189410138e-08;9.105306312301330e-08;-1.173056036037640e-09
2001;01;17;15:00:00;51926.625;-6.240884304666033e-08;-3.612204397370688e-08;-1.730526907353986e-10;4.918238735628590e-08;9.456571570740192e-08;-1.241076152744871e-09
2001;01;17;18:00:00;51926.750;-6.233608889289394e-08;-4.082435807348416e-08;-1.949884216174712e-10;9.878690097023213e-08;8.016384028216793e-08;-1.349035240158721e-09
2001;01;17;21:00:00;51926.875;-6.418651241277674e-08;-5.184328823182577e-08;-2.235855537748079e-10;1.258818334316348e-07;1.391602284618284e-08;-1.389276720495121e-09
2001;01;18;00:00:00;51927.0;-6.876480292173146e-08;-5.657608958043959e-08;-2.406965911391134e-10;1.253504829268631e-07;-5.447808962814536e-08;-1.382463001061829e-09
2001;01;18;03:00:00;51927.125;-7.028682631154923e-08;-6.706890178907224e-08;-2.766283352325354e-10;5.334229529198217e-08;-8.301785866689596e-08;-1.401638761306462e-09
2001;01;18;06:00:00;51927.250;-6.978008301104121e-08;-7.590273141402166e-08;-2.872397251849103e-10;-9.719450944903631e-09;-5.913939208121148e-08;-1.463864209375419e-09
2001;01;18;09:00:00;51927.375;-6.880211299462652e-08;-8.504516653151614e-08;-3.058873980262533e-10;-5.480440154279716e-08;-2.457385646559003e-08;-1.529809945447862e-09
2001;01;18;12:00:00;51927.500;-6.988962176151522e-08;-9.329178151582986e-08;-3.225646268636548e-10;-3.713823157457340e-08;3.960087386048021e-08;-1.548563223964510e-09
2001;01;18;15:00:00;51927.625;-7.193836283736237e-08;-1.019654743988863e-07;-3.242696073568123e-10;-1.174262097466703e-08;6.334853385571443e-08;-1.635812474620259e-09
2001;01;18;18:00:00;51927.750;-7.098057049261702e-08;-1.050949095433698e-07;-3.023294052891008e-10;4.056039690212934e-08;6.372756978323351e-08;-1.742227876750641e-09
2001;01;18;21:00:00;51927.875;-7.296563783573703e-08;-1.091097405840930e-07;-2.979958575829120e-10;5.256266020951092e-08;4.675548426370176e-08;-1.763888665813281e-09